AFR601 SOCA-TFFF

Flight info

Callsign AFR601
Flight time N/A
Altitude 34000
Route REKIM UN674 BUXEX UA555 BGI/N0445F240 A555 BORUS
Aircraft A320/M-SDE3FGHIRWY/LB1

Departure

Time 2026-05-01 14:48
Airport Cayenne – Félix Eboué Airport (SOCA)

Arrival

Time N/A
Airport Martinique Aimé Césaire International Airport (TFFF)
Time Latitude Longitude Altitude Speed Heading
2026-05-01 14:19 4.82154 -52.36367 29 ft 0 kts 334°
2026-05-01 14:40 4.82135 -52.36358 29 ft 4 kts 334°
2026-05-01 14:40 4.82114 -52.36349 29 ft 3 kts 335°
2026-05-01 14:41 4.82090 -52.36341 29 ft 4 kts
2026-05-01 14:41 4.82068 -52.36350 29 ft 4 kts 56°
2026-05-01 14:41 4.82064 -52.36357 29 ft 0 kts 66°
2026-05-01 14:44 4.82071 -52.36341 29 ft 8 kts 66°
2026-05-01 14:44 4.82021 -52.36236 29 ft 12 kts 155°
2026-05-01 14:44 4.81947 -52.36236 29 ft 11 kts 233°
2026-05-01 14:45 4.81899 -52.36340 29 ft 22 kts 245°
2026-05-01 14:45 4.81750 -52.36666 28 ft 25 kts 247°
2026-05-01 14:45 4.81682 -52.36819 28 ft 23 kts 245°
2026-05-01 14:46 4.81617 -52.36961 28 ft 23 kts 245°
2026-05-01 14:46 4.81464 -52.37295 27 ft 17 kts 248°
2026-05-01 14:46 4.81448 -52.37387 27 ft 11 kts 278°
2026-05-01 14:47 4.81420 -52.37423 27 ft 6 kts 170°
2026-05-01 14:47 4.81414 -52.37392 27 ft 5 kts 80°
2026-05-01 14:47 4.81426 -52.37368 27 ft 4 kts 62°
2026-05-01 14:48 4.81695 -52.36778 28 ft 108 kts 65°
2026-05-01 14:48 4.82083 -52.35937 32 ft 156 kts 65°
2026-05-01 14:48 4.83049 -52.33949 1335 ft 165 kts 50°
2026-05-01 14:49 4.85459 -52.32985 2197 ft 213 kts 18°
2026-05-01 14:49 4.88066 -52.31462 3559 ft 222 kts 41°
2026-05-01 14:50 4.89935 -52.30462 4303 ft 247 kts 14°
2026-05-01 14:50 4.94814 -52.30653 6084 ft 274 kts 342°
2026-05-01 14:51 4.96533 -52.31307 7309 ft 259 kts 341°
2026-05-01 14:51 5.00028 -52.32448 8353 ft 282 kts 357°
2026-05-01 14:52 5.03705 -52.33971 9691 ft 303 kts 320°
2026-05-01 14:52 5.05196 -52.35502 10285 ft 315 kts 314°
2026-05-01 14:52 5.08287 -52.39063 10634 ft 361 kts 314°
2026-05-01 14:53 5.10036 -52.40970 10796 ft 380 kts 315°
2026-05-01 14:53 5.11904 -52.42885 11279 ft 387 kts 317°
2026-05-01 14:53 5.13839 -52.44782 11865 ft 391 kts 318°
2026-05-01 14:53 5.15818 -52.46673 12455 ft 395 kts 319°
2026-05-01 14:54 5.17799 -52.48546 13040 ft 398 kts 319°
2026-05-01 14:54 5.19826 -52.50460 13617 ft 402 kts 319°
2026-05-01 14:54 5.21866 -52.52392 14132 ft 405 kts 319°
2026-05-01 14:54 5.23921 -52.54348 14613 ft 409 kts 319°
2026-05-01 14:55 5.25987 -52.56327 15094 ft 413 kts 318°
2026-05-01 14:55 5.28067 -52.58327 15564 ft 416 kts 318°
2026-05-01 14:55 5.30162 -52.60346 16023 ft 419 kts 318°
2026-05-01 14:55 5.32275 -52.62380 16472 ft 422 kts 318°
2026-05-01 14:56 5.34405 -52.64427 16910 ft 426 kts 318°
2026-05-01 14:56 5.36552 -52.66490 17350 ft 429 kts 318°
2026-05-01 14:56 5.38684 -52.68538 17785 ft 432 kts 318°
2026-05-01 14:56 5.40861 -52.70633 18212 ft 435 kts 318°
2026-05-01 14:57 5.43055 -52.72743 18583 ft 438 kts 318°
2026-05-01 14:57 5.47474 -52.76991 19320 ft 442 kts 317°
2026-05-01 14:57 5.49701 -52.79132 19691 ft 444 kts 317°
2026-05-01 14:58 5.51939 -52.81285 20068 ft 446 kts 317°
2026-05-01 14:58 5.54186 -52.83445 20447 ft 448 kts 317°
2026-05-01 14:58 5.56442 -52.85614 20801 ft 450 kts 317°
2026-05-01 14:58 5.58708 -52.87796 21165 ft 452 kts 317°
2026-05-01 14:59 5.60953 -52.89958 21537 ft 454 kts 317°
2026-05-01 14:59 5.63237 -52.92155 21855 ft 457 kts 317°
2026-05-01 14:59 5.65540 -52.94368 22182 ft 459 kts 317°
2026-05-01 14:59 5.67849 -52.96586 22495 ft 462 kts 317°
2026-05-01 15:00 5.72514 -53.01071 23124 ft 466 kts 317°
2026-05-01 15:00 5.74065 -53.02563 23352 ft 467 kts 317°
2026-05-01 15:00 5.76416 -53.04826 23612 ft 470 kts 316°
2026-05-01 15:01 5.78773 -53.07097 23898 ft 470 kts 317°
2026-05-01 15:01 5.81132 -53.09372 24209 ft 470 kts 316°
2026-05-01 15:01 5.84264 -53.12390 24522 ft 473 kts 317°
2026-05-01 15:01 5.86635 -53.14674 24799 ft 473 kts 317°
2026-05-01 15:02 5.89016 -53.16966 25034 ft 475 kts 317°
2026-05-01 15:02 5.89824 -53.17744 25111 ft 476 kts 317°
2026-05-01 15:02 5.92989 -53.20793 25454 ft 476 kts 317°
2026-05-01 15:02 5.95380 -53.23095 25737 ft 476 kts 317°
2026-05-01 15:03 5.97772 -53.25402 25979 ft 477 kts 317°
2026-05-01 15:03 6.00167 -53.27713 26235 ft 478 kts 317°
2026-05-01 15:03 6.02565 -53.30026 26480 ft 479 kts 317°
2026-05-01 15:03 6.04969 -53.32343 26718 ft 479 kts 317°
2026-05-01 15:04 6.07377 -53.34664 26959 ft 480 kts 318°
2026-05-01 15:04 6.09794 -53.36991 27180 ft 481 kts 318°
2026-05-01 15:04 6.12208 -53.39317 27505 ft 480 kts 318°
2026-05-01 15:04 6.14608 -53.41635 27860 ft 478 kts 317°
2026-05-01 15:05 6.17003 -53.43947 28213 ft 476 kts 318°
2026-05-01 15:05 6.19358 -53.46221 28560 ft 475 kts 317°
2026-05-01 15:05 6.21770 -53.48550 28897 ft 474 kts 317°
2026-05-01 15:05 6.24113 -53.50814 29260 ft 472 kts 318°
2026-05-01 15:06 6.26478 -53.53093 29628 ft 471 kts 317°
2026-05-01 15:06 6.28838 -53.55369 30002 ft 469 kts 317°
2026-05-01 15:06 6.31188 -53.57638 30335 ft 467 kts 317°
2026-05-01 15:06 6.33526 -53.59897 30644 ft 466 kts 317°
2026-05-01 15:07 6.35861 -53.62153 30926 ft 465 kts 317°
2026-05-01 15:07 6.38190 -53.64404 31249 ft 464 kts 317°
2026-05-01 15:07 6.40512 -53.66646 31542 ft 463 kts 316°
2026-05-01 15:07 6.42837 -53.68891 31814 ft 463 kts 317°
2026-05-01 15:08 6.45150 -53.71120 32198 ft 459 kts 316°
2026-05-01 15:08 6.47447 -53.73337 32539 ft 457 kts 316°
2026-05-01 15:08 6.49737 -53.75550 32909 ft 455 kts 315°
2026-05-01 15:08 6.51979 -53.77719 33281 ft 452 kts 315°
2026-05-01 15:09 6.54247 -53.79917 33555 ft 453 kts 315°
2026-05-01 15:09 6.56517 -53.82117 33823 ft 453 kts 315°
2026-05-01 15:09 6.58790 -53.84316 33970 ft 455 kts 315°
2026-05-01 15:10 6.63374 -53.88746 33997 ft 458 kts 315°
2026-05-01 15:10 6.70274 -53.95407 33997 ft 458 kts 315°
2026-05-01 15:11 6.77209 -54.02025 33996 ft 459 kts 317°
2026-05-01 15:12 6.82072 -54.06150 33993 ft 461 kts 319°
2026-05-01 15:12 6.89517 -54.12272 33998 ft 461 kts 319°
2026-05-01 15:14 7.01766 -54.22673 33997 ft 461 kts 318°
2026-05-01 15:14 7.09078 -54.28882 33992 ft 461 kts 319°
2026-05-01 15:15 7.18896 -54.37214 33990 ft 462 kts 318°
2026-05-01 15:16 7.28717 -54.45547 33989 ft 462 kts 318°
2026-05-01 15:18 7.40978 -54.55961 33991 ft 463 kts 319°
2026-05-01 15:19 7.50815 -54.64332 34000 ft 463 kts 317°
2026-05-01 15:19 7.58153 -54.70580 34003 ft 462 kts 318°
2026-05-01 15:20 7.65528 -54.76855 33999 ft 462 kts 318°
2026-05-01 15:21 7.70441 -54.81038 33998 ft 462 kts 319°
2026-05-01 15:21 7.75364 -54.85218 33994 ft 463 kts 318°
2026-05-01 15:22 7.82703 -54.91469 34007 ft 462 kts 318°
2026-05-01 15:22 7.87605 -54.95650 34007 ft 461 kts 318°
2026-05-01 15:23 7.92505 -54.99830 34008 ft 461 kts 318°
2026-05-01 15:23 7.97403 -55.04013 34007 ft 461 kts 318°
2026-05-01 15:24 8.02300 -55.08190 34009 ft 461 kts 318°
2026-05-01 15:24 8.07161 -55.12332 34005 ft 461 kts 318°
2026-05-01 15:25 8.12052 -55.16516 34007 ft 460 kts 318°
2026-05-01 15:25 8.16935 -55.20691 34014 ft 459 kts 318°
2026-05-01 15:26 8.21811 -55.24852 34012 ft 459 kts 318°
2026-05-01 15:26 8.26683 -55.29012 34012 ft 458 kts 318°
2026-05-01 15:27 8.31545 -55.33174 34010 ft 458 kts 318°
2026-05-01 15:28 8.38815 -55.39390 34008 ft 459 kts 318°
2026-05-01 15:28 8.43680 -55.43555 34010 ft 459 kts 318°
2026-05-01 15:29 8.50983 -55.49800 34014 ft 458 kts 318°
2026-05-01 15:30 8.60671 -55.58102 34011 ft 458 kts 318°
2026-05-01 15:31 8.75259 -55.70600 34012 ft 458 kts 318°
2026-05-01 15:32 8.84924 -55.78897 34024 ft 456 kts 317°
2026-05-01 15:34 8.99416 -55.91356 34012 ft 456 kts 317°